Zurück zum Katalog

CBERS 1 DEB

AktivSSO
NORAD 30789·DEBRIS·🇧🇷 Brazil🇨🇳 China

Gestartet Oct 14, 1999 von Taiyuan Satellite Launch Center

Loading…

Nächste Überflüge (nächste 24 Stunden)

TLE

AktuellSource: Space-Track

Epoche: Sep 13, 2026, 09:27 UTC

1 30789U 99057NY  26256.39429550  .00001880  00000-0  40598-3 0  9991
2 30789  98.6226 307.6167 0006396 151.5275 272.8743 14.59577769 29107

Verfolge CBERS 1 DEB in Echtzeit mit AllMySat

Download on the App Store